DO7GH-13 Weather Reports


time (UTC)temp
C
wind
direction
speed
KPH
gust
KPH
rain 1hr
cm
rain 24hr
cm
rain mn
cm
humidity
%
barometer
mb
20260906075008 17 81 0.0 6.4 0.00 0.10 0.00 64 1028.3
20260906074519 17 150 0.0 4.8 0.00 0.10 0.00 62 1028.3
20260906074010 17 49 0.0 3.2 0.00 0.10 0.00 66 1028.2
20260906073508 17 145 0.0 3.2 0.00 0.10 0.00 65 1028.2
20260906073004 16 130 0.0 3.2 0.00 0.10 0.00 66 1028.2
20260906072504 16 163 0.0 3.2 0.00 0.10 0.00 67 1028.1
20260906072004 16 43 0.0 3.2 0.00 0.10 0.00 68 1028.1
20260906071505 16 149 0.0 3.2 0.00 0.10 0.00 70 1028.1
20260906071004 16 61 0.0 3.2 0.00 0.10 0.00 70 1028.1
20260906070505 16 59 0.0 3.2 0.00 0.10 0.00 67 1028.2
20260906070013 16 36 0.0 3.2 0.00 0.10 0.00 66 1028.0
20260906065506 16 81 0.0 6.4 0.00 0.10 0.00 68 1027.9
20260906065011 16 65 0.0 6.4 0.00 0.10 0.00 68 1028.0
20260906064518 16 58 0.0 3.2 0.00 0.10 0.00 70 1028.0
20260906064010 15 49 0.0 4.8 0.00 0.10 0.00 69 1028.0
20260906063512 15 55 0.0 4.8 0.00 0.10 0.00 74 1028.0
20260906063003 15 14 1.6 4.8 0.00 0.10 0.00 71 1028.1
20260906062504 15 42 0.0 4.8 0.00 0.10 0.00 70 1028.1
20260906062005 15 350 0.0 0.0 0.00 0.10 0.00 74 1028.2
20260906061506 15 5 0.0 0.0 0.00 0.10 0.00 76 1028.3
20260906061004 15 9 0.0 0.0 0.00 0.10 0.00 78 1028.2
20260906060505 14 9 0.0 0.0 0.00 0.10 0.00 78 1028.1
20260906060009 14 352 0.0 0.0 0.00 0.10 0.00 80 1028.0
20260906055506 13 351 0.0 0.0 0.00 0.10 0.00 80 1027.9
20260906055007 13 352 0.0 0.0 0.00 0.10 0.00 81 1027.9
20260906054516 13 342 0.0 0.0 0.00 0.10 0.00 83 1027.8
20260906054009 13 342 0.0 0.0 0.00 0.13 0.00 83 1028.0
20260906053504 13 336 0.0 0.0 0.00 0.15 0.00 85 1027.8
20260906053009 13 340 0.0 0.0 0.00 0.15 0.00 85 1027.8
20260906052504 13 321 0.0 0.0 0.00 0.15 0.00 85 1027.8
20260906052006 13 320 0.0 0.0 0.00 0.15 0.00 86 1027.8
20260906051514 13 331 0.0 0.0 0.00 0.15 0.00 86 1027.8
20260906051008 13 338 0.0 0.0 0.00 0.15 0.00 86 1027.8
20260906050508 12 324 0.0 0.0 0.00 0.18 0.00 86 1027.8
20260906050023 12 328 0.0 0.0 0.00 0.36 0.00 86 1027.8
20260906045504 12 329 0.0 0.0 0.00 0.38 0.00 86 1027.7
20260906045004 13 324 0.0 0.0 0.00 0.46 0.00 86 1027.7
20260906044515 13 325 0.0 0.0 0.00 0.46 0.00 86 1027.8
20260906044007 13 320 0.0 0.0 0.00 0.46 0.00 86 1027.8
20260906043504 13 315 0.0 0.0 0.00 0.46 0.00 86 1027.8
20260906043013 13 313 0.0 0.0 0.00 0.46 0.00 86 1027.7
20260906042506 13 313 0.0 0.0 0.00 0.46 0.00 87 1027.8
20260906042008 13 313 0.0 0.0 0.00 0.46 0.00 87 1027.8
20260906041519 13 313 0.0 0.0 0.00 0.46 0.00 87 1027.6
20260906041009 13 328 0.0 0.0 0.00 0.46 0.00 87 1027.5
20260906040512 13 329 0.0 0.0 0.00 0.46 0.00 86 1027.4
20260906040026 13 329 0.0 0.0 0.00 0.46 0.00 86 1027.4
20260906035512 13 330 0.0 0.0 0.00 0.46 0.00 86 1027.5
20260906035007 13 320 0.0 0.0 0.00 0.46 0.00 86 1027.5
20260906034513 13 316 0.0 0.0 0.00 0.46 0.00 86 1027.4
20260906034010 13 335 0.0 0.0 0.00 0.46 0.00 86 1027.4
20260906033504 13 325 0.0 0.0 0.00 0.46 0.00 86 1027.5
20260906033019 13 329 0.0 0.0 0.00 0.46 0.00 87 1027.4
20260906032508 13 327 0.0 0.0 0.00 0.46 0.00 87 1027.3
20260906032008 13 342 0.0 0.0 0.00 0.46 0.00 87 1027.3
20260906031520 13 331 0.0 0.0 0.00 0.46 0.00 87 1027.3
20260906031010 13 337 0.0 0.0 0.00 0.46 0.00 87 1027.2
20260906030514 13 330 0.0 0.0 0.00 0.46 0.00 87 1027.2
20260906030029 13 316 0.0 3.2 0.00 0.46 0.00 87 1027.1
20260906025513 13 320 0.0 3.2 0.00 0.46 0.00 87 1027.2
20260906025015 13 349 0.0 3.2 0.00 0.46 0.00 87 1027.2
20260906024530 13 321 0.0 3.2 0.00 0.46 0.00 88 1027.2
20260906024014 13 318 0.0 3.2 0.00 0.46 0.00 88 1027.2
20260906023505 13 324 0.0 3.2 0.00 0.46 0.00 89 1027.3
20260906023013 13 326 0.0 3.2 0.00 0.46 0.00 88 1027.2
20260906022507 13 324 0.0 3.2 0.00 0.46 0.00 88 1027.1
20260906022008 13 320 0.0 3.2 0.00 0.46 0.00 88 1027.1
20260906021521 13 350 0.0 4.8 0.00 0.46 0.00 88 1027.2
20260906021010 13 337 0.0 4.8 0.00 0.46 0.00 88 1027.2
20260906020516 13 329 0.0 3.2 0.00 0.46 0.00 88 1027.1
20260906020029 13 347 0.0 6.4 0.00 0.46 0.00 87 1027.1
20260906015513 13 352 0.0 6.4 0.00 0.46 0.00 87 1027.1
20260906015013 14 336 1.6 4.8 0.00 0.46 0.00 86 1027.1
20260906014533 14 319 1.6 4.8 0.00 0.46 0.00 86 1027.1
20260906014013 14 331 1.6 3.2 0.00 0.46 0.00 86 1027.1
20260906013507 14 325 0.0 3.2 0.00 0.46 0.00 86 1027.1
20260906013019 14 315 0.0 0.0 0.00 0.46 0.00 86 1027.1
20260906012506 14 313 0.0 0.0 0.00 0.46 0.00 86 1027.1
20260906012007 14 350 0.0 0.0 0.00 0.46 0.00 86 1027.1
20260906011517 14 340 0.0 0.0 0.00 0.46 0.00 87 1027.1
20260906011010 14 340 0.0 0.0 0.00 0.46 0.00 86 1027.2
20260906010513 14 323 0.0 0.0 0.00 0.46 0.00 87 1027.2
20260906010026 14 323 0.0 0.0 0.00 0.46 0.00 87 1027.2
20260906005502 14 327 0.0 0.0 0.00 0.46 0.00 86 1027.1
20260906005004 14 330 0.0 0.0 0.00 0.46 0.00 87 1027.1
20260906004503 14 338 0.0 0.0 0.00 0.46 0.00 87 1027.2
20260906004004 14 338 0.0 0.0 0.00 0.46 0.00 87 1027.1
20260906003505 14 333 0.0 0.0 0.00 0.46 0.00 88 1027.1
20260906003009 14 336 0.0 0.0 0.00 0.46 0.00 87 1027.1
20260906002505 14 32 0.0 0.0 0.00 0.46 0.00 86 1027.0
20260906002003 15 316 0.0 3.2 0.00 0.46 0.00 86 1027.0
20260906001505 15 262 0.0 1.6 0.00 0.46 0.00 86 1027.0
20260906001004 15 267 0.0 0.0 0.00 0.46 0.00 86 1026.9
20260906000504 15 251 0.0 0.0 0.00 0.46 0.00 87 1027.0
20260906000006 15 251 0.0 0.0 0.00 0.46 0.00 87 1027.0
20260905235502 15 253 0.0 0.0 0.00 0.46 0.00 87 1027.0
20260905235002 14 242 0.0 0.0 0.00 0.46 0.00 87 1027.0
20260905234506 14 249 0.0 0.0 0.00 0.46 0.00 87 1027.0
20260905234003 15 263 0.0 0.0 0.00 0.46 0.00 87 1027.0
20260905233505 15 257 0.0 0.0 0.00 0.46 0.00 87 1027.0
20260905233020 14 254 0.0 0.0 0.00 0.46 0.00 87 1027.1
20260905232502 14 238 0.0 0.0 0.00 0.46 0.00 87 1027.1
20260905232002 14 235 0.0 0.0 0.00 0.46 0.00 87 1027.1
20260905231505 14 211 0.0 0.0 0.00 0.46 0.00 86 1027.0
20260905231004 14 197 0.0 0.0 0.00 0.46 0.00 86 1027.1
20260905230504 15 238 0.0 0.0 0.00 0.46 0.00 86 1027.1
20260905230008 15 240 0.0 0.0 0.00 0.46 0.00 85 1027.0
20260905225504 15 240 0.0 1.6 0.00 0.46 0.00 85 1027.0
20260905225006 15 258 0.0 1.6 0.00 0.46 0.00 85 1026.9
20260905224516 15 295 0.0 3.2 0.00 0.46 0.00 85 1026.9
20260905224002 15 268 0.0 3.2 0.00 0.46 0.00 85 1026.9
20260905223502 15 259 0.0 3.2 0.00 0.46 0.00 85 1026.9
20260905223004 15 238 0.0 0.0 0.00 0.46 0.00 84 1026.8
20260905222503 15 260 0.0 0.0 0.00 0.46 0.00 85 1026.8
20260905222009 15 240 0.0 0.0 0.00 0.46 0.00 85 1026.8
20260905221507 15 283 0.0 0.0 0.00 0.46 0.00 84 1026.9
20260905221003 15 254 0.0 0.0 0.00 0.46 0.00 85 1026.9
20260905220504 15 269 0.0 0.0 0.00 0.46 0.00 85 1026.8
20260905220012 15 292 0.0 3.2 0.00 0.46 0.00 84 1026.8
20260905215508 15 292 0.0 3.2 0.00 0.46 0.46 84 1026.8
20260905215008 15 272 0.0 1.6 0.00 0.46 0.46 83 1026.7
20260905214519 16 258 0.0 3.2 0.00 0.46 0.46 83 1026.7
20260905214012 15 257 0.0 3.2 0.00 0.46 0.46 84 1026.7
20260905213509 15 277 0.0 3.2 0.00 0.46 0.46 84 1026.6
20260905213004 15 259 0.0 0.0 0.00 0.46 0.46 84 1026.5
20260905212503 15 292 0.0 3.2 0.00 0.46 0.46 84 1026.5
20260905212004 16 282 0.0 3.2 0.00 0.46 0.46 84 1026.5
20260905211508 16 254 0.0 3.2 0.00 0.46 0.46 84 1026.5
20260905211004 16 297 0.0 3.2 0.00 0.46 0.46 84 1026.4
20260905210505 16 275 0.0 3.2 0.00 0.46 0.46 84 1026.4
20260905210014 16 255 0.0 0.0 0.00 0.46 0.46 84 1026.4
20260905205507 16 251 0.0 1.6 0.00 0.46 0.46 85 1026.3
20260905205009 16 251 0.0 1.6 0.00 0.46 0.46 84 1026.4
20260905204517 16 13 0.0 0.0 0.00 0.46 0.46 84 1026.3
20260905204010 16 13 0.0 1.6 0.00 0.46 0.46 84 1026.3
20260905203510 16 13 0.0 3.2 0.00 0.46 0.46 83 1026.3
20260905203027 16 9 0.0 3.2 0.00 0.46 0.46 82 1026.2
20260905202502 17 346 0.0 3.2 0.00 0.46 0.46 82 1026.2
20260905202009 17 304 0.0 8.0 0.00 0.46 0.46 81 1026.2
20260905201505 17 268 0.0 8.0 0.00 0.46 0.46 81 1026.1
20260905201004 17 300 0.0 6.4 0.00 0.46 0.46 81 1026.0
20260905200507 17 243 0.0 6.4 0.00 0.46 0.46 81 1025.9
20260905200009 17 234 0.0 3.2 0.00 0.46 0.46 80 1025.9
20260905195506 17 295 0.0 3.2 0.00 0.46 0.46 80 1025.9
20260905195006 17 258 0.0 12.9 0.00 0.46 0.46 79 1025.9
20260905194516 17 292 1.6 12.9 0.00 0.46 0.46 79 1025.8
20260905194009 17 277 1.6 12.9 0.00 0.46 0.46 80 1025.7
20260905193508 17 296 3.2 11.3 0.00 0.46 0.46 81 1025.6
20260905193008 17 265 1.6 8.0 0.00 0.46 0.46 81 1025.5
20260905192508 17 247 1.6 8.0 0.00 0.46 0.46 81 1025.4
20260905192005 17 259 3.2 6.4 0.00 0.46 0.46 81 1025.5
20260905191510 17 245 1.6 6.4 0.00 0.46 0.46 82 1025.4
20260905191007 17 311 1.6 6.4 0.00 0.46 0.46 82 1025.3
20260905190507 17 344 1.6 4.8 0.00 0.46 0.46 82 1025.2
20260905190013 18 294 0.0 6.4 0.00 0.46 0.46 82 1025.1
20260905185507 18 287 1.6 8.0 0.00 0.46 0.46 81 1025.1
20260905185004 18 244 1.6 12.9 0.00 0.46 0.46 81 1025.1
20260905184521 18 287 3.2 12.9 0.00 0.46 0.46 81 1025.0
20260905184006 18 257 3.2 8.0 0.00 0.46 0.46 82 1024.9
20260905183506 18 311 1.6 8.0 0.00 0.46 0.46 82 1024.9
20260905183006 18 249 0.0 8.0 0.00 0.46 0.46 83 1024.8
20260905182504 18 232 0.0 3.2 0.00 0.46 0.46 83 1024.8
20260905182006 18 248 0.0 3.2 0.00 0.46 0.46 83 1024.6
20260905181515 18 260 0.0 3.2 0.00 0.46 0.46 83 1024.6
20260905181009 18 287 0.0 3.2 0.00 0.46 0.46 83 1024.5
20260905180509 18 252 1.6 3.2 0.00 0.46 0.46 83 1024.5
20260905180024 18 254 0.0 3.2 0.00 0.46 0.46 83 1024.4
20260905175505 18 252 0.0 3.2 0.00 0.46 0.46 83 1024.4
20260905175005 18 316 0.0 3.2 0.00 0.46 0.46 83 1024.4
20260905174526 18 256 0.0 3.2 0.00 0.46 0.46 83 1024.4
20260905174006 18 267 0.0 3.2 0.00 0.46 0.46 82 1024.3
20260905173507 18 259 0.0 3.2 0.00 0.46 0.46 82 1024.3
20260905173005 18 188 0.0 3.2 0.00 0.46 0.46 81 1024.3
20260905172505 18 276 0.0 4.8 0.00 0.46 0.46 81 1024.1
20260905172007 18 261 0.0 3.2 0.00 0.46 0.46 80 1024.2
20260905171514 19 266 0.0 4.8 0.00 0.46 0.46 80 1024.2
20260905171011 19 196 0.0 4.8 0.00 0.46 0.46 79 1024.1
20260905170507 19 263 0.0 6.4 0.00 0.46 0.46 79 1024.2
20260905170024 19 309 1.6 8.0 0.00 0.46 0.46 78 1024.2
20260905165512 20 225 1.6 8.0 0.00 0.46 0.46 77 1024.2
20260905165014 20 264 1.6 8.0 0.00 0.46 0.46 76 1024.2
20260905164531 20 209 1.6 6.4 0.00 0.46 0.46 76 1024.1
20260905164004 20 185 0.0 9.7 0.00 0.46 0.46 75 1024.1
20260905163504 20 194 1.6 9.7 0.00 0.46 0.46 74 1024.1
20260905163008 20 236 1.6 6.4 0.00 0.46 0.46 73 1024.1
20260905162507 20 241 1.6 6.4 0.00 0.46 0.46 73 1024.1
20260905162007 20 246 1.6 8.0 0.00 0.46 0.46 74 1024.1
20260905161516 20 260 1.6 8.0 0.00 0.46 0.46 73 1024.1
20260905161009 20 275 1.6 8.0 0.00 0.46 0.46 74 1024.1
20260905160510 20 207 0.0 9.7 0.00 0.46 0.46 74 1024.1
20260905160042 20 222 1.6 11.3 0.00 0.46 0.46 73 1024.0
20260905155511 20 256 1.6 11.3 0.00 0.46 0.46 73 1024.0
20260905155013 20 236 0.0 6.4 0.00 0.46 0.46 74 1023.9
20260905154527 20 260 1.6 6.4 0.00 0.46 0.46 73 1023.9
20260905154017 21 292 1.6 8.0 0.00 0.46 0.46 72 1023.9
20260905153506 21 288 3.2 8.0 0.00 0.46 0.46 71 1024.0
20260905153012 20 230 3.2 11.3 0.00 0.46 0.46 73 1024.0
20260905152504 20 312 1.6 11.3 0.00 0.46 0.46 73 1024.1
20260905152010 21 333 1.6 9.7 0.00 0.46 0.46 72 1024.1
20260905151518 21 360 1.6 12.9 0.00 0.46 0.46 69 1024.0
20260905151012 21 235 3.2 12.9 0.00 0.46 0.46 68 1024.1
20260905150510 21 269 3.2 22.5 0.00 0.46 0.46 68 1024.0
20260905150028 20 294 1.6 22.5 0.00 0.46 0.46 69 1024.0
20260905145512 20 226 3.2 8.0 0.00 0.46 0.46 69 1024.1
20260905145014 20 228 3.2 9.7 0.00 0.46 0.46 69 1024.0
20260905144543 20 198 1.6 9.7 0.00 0.46 0.46 68 1024.1
20260905144016 20 286 1.6 16.1 0.00 0.46 0.46 68 1024.1
20260905143506 20 191 1.6 16.1 0.00 0.46 0.46 69 1024.2
20260905143022 20 344 3.2 12.9 0.00 0.46 0.46 70 1024.1
20260905142509 20 237 3.2 14.5 0.00 0.46 0.46 71 1024.1
20260905142007 20 185 4.8 14.5 0.00 0.46 0.46 69 1024.3
20260905141520 20 258 3.2 14.5 0.00 0.46 0.46 71 1024.2
20260905141014 20 317 1.6 8.0 0.00 0.46 0.46 73 1024.3
20260905140509 20 294 1.6 16.1 0.00 0.46 0.46 74 1024.3
20260905140020 20 21 4.8 16.1 0.00 0.46 0.46 73 1024.3
20260905135512 20 294 1.6 16.1 0.00 0.46 0.46 76 1024.4
20260905135012 19 316 3.2 16.1 0.00 0.46 0.46 74 1024.4
20260905134526 20 228 3.2 11.3 0.00 0.46 0.46 74 1024.4
20260905134007 20 316 1.6 9.7 0.00 0.46 0.46 74 1024.6
20260905133506 20 231 3.2 11.3 0.00 0.46 0.46 74 1024.5
20260905133016 19 261 1.6 11.3 0.00 0.46 0.46 75 1024.6
20260905132513 18 268 1.6 11.3 0.00 0.46 0.46 80 1024.6
20260905132012 18 261 3.2 11.3 0.00 0.46 0.46 78 1024.6
20260905131542 18 348 3.2 11.3 0.00 0.46 0.46 79 1024.5
20260905131006 18 251 3.2 8.0 0.00 0.46 0.46 82 1024.6
20260905130508 17 229 1.6 6.4 0.00 0.46 0.46 83 1024.5
20260905130017 17 292 0.0 8.0 0.00 0.46 0.46 83 1024.6
20260905125508 17 343 1.6 14.5 0.00 0.46 0.46 83 1024.6
20260905125011 17 252 4.8 14.5 0.00 0.46 0.46 83 1024.8
20260905124526 17 275 1.6 8.0 0.00 0.46 0.46 85 1024.8
20260905124008 17 233 3.2 12.9 0.00 0.46 0.46 84 1024.6
20260905123508 17 159 1.6 12.9 0.00 0.46 0.46 85 1024.6
20260905123020 17 238 3.2 9.7 0.00 0.46 0.46 86 1024.6
20260905122513 17 249 1.6 8.0 0.00 0.46 0.46 87 1024.5
20260905122013 16 268 1.6 8.0 0.00 0.46 0.46 87 1024.4
20260905121530 16 227 1.6 6.4 0.00 0.46 0.46 86 1024.3
20260905121018 16 209 1.6 6.4 0.00 0.46 0.46 85 1024.2
20260905120517 16 234 0.0 6.4 0.00 0.46 0.46 86 1024.4
20260905120030 16 265 1.6 6.4 0.00 0.46 0.46 86 1024.4
20260905115511 16 284 1.6 6.4 0.00 0.46 0.46 86 1024.5
20260905115012 16 196 1.6 8.0 0.00 0.46 0.46 86 1024.5
20260905114522 16 213 1.6 8.0 0.00 0.46 0.46 86 1024.4
20260905114008 16 244 0.0 9.7 0.00 0.46 0.46 87 1024.3
20260905113509 16 225 1.6 9.7 0.00 0.46 0.46 86 1024.3
20260905113024 16 282 3.2 9.7 0.00 0.46 0.46 85 1024.4
20260905112514 16 236 4.8 9.7 0.00 0.46 0.46 86 1024.4
20260905112015 16 234 3.2 8.0 0.00 0.46 0.46 87 1024.3
20260905111529 16 184 1.6 4.8 0.00 0.46 0.46 1024.2
20260905111015 15 212 0.0 4.8 0.00 0.46 0.46 1024.3
20260905110517 15 178 1.6 4.8 0.00 0.46 0.46 88 1024.5
20260905110034 15 227 1.6 4.8 0.00 0.46 0.46 88 1024.5
20260905105518 15 209 3.2 4.8 0.00 0.46 0.46 88 1024.4
20260905105016 15 301 0.0 6.4 0.00 0.46 0.46 89 1024.2
20260905104514 15 136 3.2 6.4 0.00 0.46 0.46 88 1024.3
20260905104010 15 261 0.0 6.4 0.00 0.43 0.43 88 1024.5
20260905103512 15 235 1.6 6.4 0.00 0.43 0.43 87 1024.4
20260905103032 15 184 1.6 4.8 0.05 0.43 0.43 87 1024.4
20260905102514 15 217 0.0 3.2 0.08 0.43 0.43 86 1024.3
20260905102013 15 227 0.0 3.2 0.08 0.43 0.43 88 1024.3
20260905101530 15 252 1.6 3.2 0.08 0.43 0.43 87 1024.3
20260905101016 14 230 0.0 3.2 0.08 0.43 0.43 88 1024.3
20260905100505 14 248 0.0 4.8 0.08 0.43 0.43 89 1024.4
20260905100009 14 195 1.6 4.8 0.08 0.43 0.43 89 1024.3
20260905095506 14 194 0.0 4.8 0.08 0.43 0.43 90 1024.3
20260905095006 14 261 1.6 4.8 0.08 0.43 0.43 89 1024.4
20260905094513 14 211 0.0 6.4 0.08 0.43 0.43 90 1024.4
20260905094008 14 206 0.0 6.4 0.08 0.43 0.43 88 1024.4
20260905093507 14 219 1.6 6.4 0.08 0.41 0.41 88 1024.5
20260905093003 14 215 1.6 8.0 0.03 0.36 0.36 88 1024.3
20260905092505 15 225 3.2 8.0 0.00 0.36 0.36 87 1024.2
20260905092003 15 132 1.6 8.0 0.00 0.33 0.33 86 1024.0
20260905091505 15 127 3.2 6.4 0.00 0.33 0.33 86 1024.1
20260905091002 15 190 1.6 3.2 0.00 0.33 0.33 86 1024.0
20260905090506 15 152 0.0 3.2 0.00 0.33 0.33 86 1024.0
20260905090007 15 154 0.0 0.0 0.00 0.33 0.33 87 1024.1
20260905085504 15 227 0.0 0.0 0.00 0.33 0.33 87 1024.1
20260905085007 15 202 0.0 0.0 0.00 0.33 0.33 87 1024.0
20260905084515 15 159 0.0 0.0 0.00 0.33 0.33 87 1023.8
20260905084008 15 156 0.0 0.0 0.00 0.33 0.33 86 1023.9
20260905083507 15 122 0.0 0.0 0.00 0.33 0.33 87 1023.8
20260905083003 15 148 0.0 0.0 0.00 0.33 0.33 85 1023.9
20260905082503 15 137 0.0 0.0 0.00 0.33 0.33 86 1023.8
20260905082005 15 130 0.0 4.8 0.00 0.33 0.33 87 1023.8
20260905081509 15 134 0.0 4.8 0.00 0.33 0.33 87 1023.7
20260905081003 15 48 0.0 3.2 0.00 0.33 0.33 87 1023.8
20260905080504 15 153 0.0 3.2 0.00 0.33 0.33 88 1023.7
20260905080006 15 207 0.0 4.8 0.00 0.33 0.33 1023.8
20260905075503 14 208 1.6 4.8 0.00 0.33 0.33 88 1023.7